Observations for Trim Patrick St
| Time | AQI | Temp °C | Hum % | Pres Pa | CO μg/m³ | H₂S μg/m³ | NO μg/m³ | NO₂ μg/m³ | O₃ μg/m³ | SO₂ μg/m³ | PM1 μg/m³ | PM2.5 μg/m³ | PM10 μg/m³ |
|---|---|---|---|---|---|---|---|---|---|---|---|---|---|
| Thursday 6 August 2026 | |||||||||||||
| 17:06 | 2 | 25.2 | 38 | 68,939 | 0 | 11.77 | 1.62 | 11.79 | 72.03 | 9.62 | 2 | 7.17 | 7.89 |
| 17:05 | 3 | 25.2 | 38 | 68,934 | 0 | 15.15 | 1.63 | 25.03 | 80.07 | 9.91 | 2 | 7.15 | 7.86 |
| 17:04 | 2 | 25.2 | 38 | 68,955 | 0 | 14.3 | 1.43 | 18.52 | 76.39 | 9.73 | 2 | 7.97 | 8.76 |
| 17:03 | 2 | 25.2 | 38 | 68,926 | 0 | 15.95 | 1.3 | 20.2 | 76.7 | 9.92 | 2 | 7.16 | 7.87 |
| 17:02 | 2 | 25.2 | 38 | 68,918 | 0 | 15.18 | 1.42 | 16.08 | 92.45 | 10.28 | 2 | 7.16 | 7.87 |
| 17:01 | 2 | 25.2 | 38 | 68,934 | 0 | 14.96 | 1.4 | 12.42 | 87.06 | 10.16 | 2 | 7.16 | 7.87 |
| 17:00 | 2 | 25.2 | 38 | 68,930 | 0 | 16.29 | 1.44 | 24.82 | 77.43 | 10.4 | 2 | 7.96 | 8.75 |
| 16:59 | 2 | 25.3 | 37 | 68,949 | 0 | 15.44 | 1.59 | 11.24 | 89.06 | 10.82 | 2 | 7.21 | 7.93 |
| 16:58 | 2 | 25.3 | 38 | 68,943 | 0 | 15.7 | 1.8 | 13.08 | 94.83 | 10.76 | 2 | 7.2 | 7.92 |
| 16:57 | 2 | 25.4 | 37 | 68,937 | 0 | 10.52 | 1.43 | 12.66 | 83.56 | 10.02 | 2 | 7.23 | 7.95 |
| 16:56 | 2 | 25.4 | 38 | 68,963 | 0 | 13.12 | 1.33 | 15.55 | 88.15 | 10.13 | 2 | 7.18 | 7.9 |
| 16:55 | 2 | 25.5 | 37 | 68,963 | 0 | 13.54 | 1.42 | 14.95 | 83.95 | 10.35 | 2 | 7.25 | 7.97 |
| 16:54 | 2 | 25.6 | 37 | 68,965 | 0 | 15.91 | 1.32 | 12.56 | 87.1 | 10.32 | 2 | 8.04 | 8.84 |
| 16:53 | 2 | 25.7 | 37 | 68,969 | 0 | 16.22 | 1.26 | 23.14 | 86.68 | 11.24 | 2 | 7.23 | 7.96 |
| 16:52 | 2 | 25.8 | 36 | 68,971 | 0 | 10.63 | 1.41 | 10.94 | 88.21 | 10.81 | 2 | 7.27 | 8 |
| 16:51 | 2 | 25.9 | 36 | 68,973 | 0 | 10.01 | 1.31 | 12.09 | 89 | 10.54 | 2 | 7.28 | 8.01 |
| 16:50 | 2 | 26 | 36 | 68,975 | 0 | 10.94 | 1.34 | 13.5 | 92.48 | 10.91 | 2 | 7.28 | 8.01 |
| 16:49 | 2 | 26.1 | 36 | 68,979 | 0 | 10.45 | 1.3 | 10.48 | 102.31 | 11.36 | 2 | 7.32 | 8.05 |
| 16:48 | 2 | 26.2 | 35 | 68,983 | 0 | 9.59 | 1.26 | 13.39 | 83.55 | 10.79 | 2 | 8.13 | 8.94 |
| 16:46 | 2 | 26.4 | 35 | 68,989 | 0 | 7.8 | 1.5 | 11.16 | 91.51 | 11.2 | 2 | 7.38 | 8.12 |